P/2008 Y12 ( SOHO )

Japanese version
Home page
Updated on June 15, 2014

---------------------------------------------------------------------

* Profile

* Orbital Elements

Epoch 2009 Jan. 9.0 TT = JDT 2454840.5
T 2008 Dec. 22.56333 TT                                 MPC
q   0.0679228            (2000.0)            P               Q
n   0.18234961     Peri.  144.03072     -0.10962655     -0.94643285
a   3.0798731      Node   310.13666     +0.79364939     +0.10061696
e   0.9779462      Incl.   23.40805     +0.59841679     -0.30682421
P   5.41
From 67 observations 2008 Dec. 21-2014 May 17.

---------------------------------------------------------------------

The orbital elements are published on M.P.E.C. 2014-K37.

---------------------------------------------------------------------

Copyright(C) Seiichi Yoshida (comet@aerith.net). All rights reserved.